Regional Weather Roundup
Issued by NWS

Home | Current Version | Previous Version | Graphics & Text | Print | Product List | Glossary On
Versions: 1 2 3 4 5 6 7 8 9 10 11 12 13 14 15 16 17 18 19 20 21 22 23 24 25 26 27 28 29 30 31 32 33 34 35 36 37 38 39 40 41 42 43 44 45 46 47 48 49 50
000
ASUS43 KDMX 100503
RWRIA

WEATHER ROUNDUP FOR IOWA
NATIONAL WEATHER SERVICE DES MOINES IA
1100 PM CST TUE FEB 09 2016

NOTE: "FAIR" INDICATES FEW OR NO CLOUDS BELOW 12,000 FEET WITH NO
SIGNIFICANT WEATHER AND/OR OBSTRUCTIONS TO VISIBILITY.

* - THESE STATIONS ARE NOT NWS STATIONS...THUS NOT UNDER NWS
QUALITY CONTROL.  THEY ALSO DO NOT REPORT WEATHER SUCH
AS PRECIPITATION OR FOG.

IAZ001>003-012>014-020>022-031>034-043>046-100600-
   NORTHWEST IOWA

CITY           SKY/WX    TMP DP  RH WIND       PRES   REMARKS
CARROLL *      CLOUDY    21  14  73 NW10      30.17S WCI  10
CHEROKEE *     CLOUDY    21  14  73 N5        30.16F WCI  15
DENISON *      CLOUDY    18  10  73 CALM      30.17S
LE MARS *      CLOUDY    21  18  86 S3        30.18S
ORANGE CITY *  CLOUDY    18  16  93 CALM      30.15S
SHELDON *      CLOUDY    19  14  79 NW5       30.13F WCI  13
SIOUX CITY     PTCLDY    20  13  74 S5        30.18F WCI  13
SPENCER        CLOUDY    19  11  70 NW7       30.15S WCI  10
STORM LAKE *   CLOUDY    19  14  79 NW10      30.15S WCI   8
$$

IAZ055>058-069>071-079>083-090>094-100600-
   SOUTHWEST IOWA

CITY           SKY/WX    TMP DP  RH WIND       PRES   REMARKS
ATLANTIC *     CLOUDY    19  10  68 NW7       30.20F WCI  10
AUDUBON *      CLOUDY    19  10  68 NW6       30.18F WCI  11
CLARINDA *     CLOUDY    23  14  68 N7        30.24F WCI  15
COUNCIL BLFS * MOCLDY    21  14  73 SW3       30.20F
CRESTON *      CLOUDY    19  12  73 NW16      30.18F WCI   5
HARLAN  *      CLOUDY    21  12  68 NW10      30.23S WCI  10
LAMONI         CLEAR     18  10  71 NW8       30.17S WCI   8
RED OAK *      CLOUDY    23  16  74 NW5       30.22F WCI  17
SHENANDOAH *   CLOUDY    23  18  80 W5        30.24F WCI  17
$$

IAZ047>049-059>061-072>074-084-100600-
   CENTRAL IOWA

CITY           SKY/WX    TMP DP  RH WIND       PRES   REMARKS
AMES           CLEAR     14   6  70 NW9       30.17S WCI   2
ANKENY *       CLEAR     12   5  73 NW3       30.18S
BOONE *        CLOUDY    12   7  79 NW7G13    30.15S WCI   2
CHARITON *     CLEAR     16   7  67 NW13      30.17S WCI   2
DES MOINES     PTCLDY    15   6  67 NW9       30.18S WCI   3
GRINNELL*      CLEAR     10   7  85 NW9       30.14S WCI  -2
KNOXVILLE *    CLEAR     14   5  67 NW14G21   30.15S WCI  -1
MARSHALLTOWN   CLEAR      8   4  83 W7        30.13F WCI  -3
NEWTON *       FLURRIES  14   7  73 NW14G20   30.15S WCI  -1
PELLA *        CLEAR     14   8  77 NW13      30.17F WCI  -1
$$

IAZ004>006-015-016-023>025-035-036-100600-
   NORTH CENTRAL IOWA

CITY           SKY/WX    TMP DP  RH WIND       PRES   REMARKS
ALGONA *       MOCLDY    10   7  85 NW8       30.14S WCI  -1
CLARION *      CLEAR      9   3  78 NW9       30.15S WCI  -5
ESTHERVILLE    CLOUDY    16   9  74 NW14      30.14R WCI   2
FORT DODGE *   CLOUDY     7  -2  66 CALM      30.16S
MASON CITY     CLOUDY     7   2  80 NW17      30.13R WCI -12
FOREST CITY *    N/A      9   5  85 NW8       30.13R WCI  -4
WEBSTER CITY * CLEAR      7   1  78 NW10      30.14S WCI  -8
IOWA FALLS *     N/A      9   3  78 NW12      30.14S WCI  -6
$$

IAZ007>011-017>019-026>030-037>042-050>054-066-100600-
   NORTHEAST IOWA

CITY           SKY/WX    TMP DP  RH WIND       PRES   REMARKS
CEDAR RAPIDS   CLEAR      9   3  77 NW13      30.10S WCI  -7
CHARLES CITY * CLOUDY     9   0  66 NW16G22   30.10S WCI  -9
CLINTON *      CLEAR      9   4  80 NW12      30.06F WCI  -6
DECORAH *      CLOUDY     5  -4  66 NW6       30.06R WCI  -6
DUBUQUE        CLEAR      9  -1  64 NW13      30.03S WCI  -7
MONTICELLO *   CLEAR      9   0  66 NW9       30.08S WCI  -5
OELWEIN *      CLOUDY     7  -2  66 NW13      30.09S WCI  -9
WATERLOO       CLEAR      9  -1  64 NW8       30.12S WCI  -3
$$

IAZ064-065-067-068-078-100600-
   EAST CENTRAL IOWA

CITY           SKY/WX    TMP DP  RH WIND       PRES   REMARKS
DAVENPORT      CLEAR     11   2  67 NW14      30.07F WCI  -5
IOWA CITY      CLEAR     11   2  67 NW10      30.13F WCI  -3
MT. PLEASANT * CLEAR     15   6  66 NW13G18   30.13S WCI   1
MUSCATINE *    CLEAR     12   3  67 NW8       30.13S WCI   1
QUAD CITIES    CLEAR     12   2  64 NW13      30.08F WCI  -3
$$

IAZ062-063-075>077-085>089-095>099-100600-
   SOUTHEAST IOWA

CITY           SKY/WX    TMP DP  RH WIND       PRES   REMARKS
BURLINGTON     CLEAR     12   4  70 NW13      30.11S WCI  -3
FAIRFIELD *    CLEAR     12   3  67 NW12      30.14R WCI  -2
FORT MADISON * CLEAR     12   7  79 NW13      30.12F WCI  -3
KEOKUK *       PTCLDY    14   7  73 NW13G20   30.13S WCI   0
OSKALOOSA *      N/A     12   9  85 NW13      30.15S WCI  -3
OTTUMWA        CLEAR     13   8  81 NW16      30.15S WCI  -3
WASHINGTON *   CLEAR     12   3  67 NW13G20   30.14S WCI  -3
$$

ABBREVIATIONS USED IN REMARKS
   TC - TEMPERATURES IN CELSIUS
  WCI - WIND CHILL INDEX
   HX - HEAT INDEX
  VSB - VISIBILITY
$$





USA.gov is the U.S. government's official web portal to all federal, state and local government web resources and services.